Wind_Speed
15 16 16 16 17 17 17 17 18 19 20 21 21 22 22 22 23 22 22 22 21 20 19 19 18 17 16 15 14 13 12 11 11 11 13 14 15 15 15 15 16 15 15
15 16 17 16 16 16 16 16 17 18 18 19 20 22 22 22 22 23 23 22 22 21 21 20 19 18 18 17 16 15 14 13 13 12 13 13 14 14 15 15 15 15 15
16 16 16 16 16 16 15 15 15 16 17 17 19 20 22 23 23 23 24 24 24 23 22 21 21 20 19 19 18 16 15 15 14 13 14 15 15 15 15 16 16 15 15
16 16 16 16 16 15 15 14 14 15 15 16 17 19 21 22 22 23 24 25 25 24 23 23 22 21 20 20 19 18 17 16 16 15 15 16 16 16 16 16 16 15 15
16 17 16 16 16 15 15 14 14 13 14 15 16 18 20 21 21 22 23 24 26 25 24 24 23 22 21 21 21 19 18 18 17 17 16 16 16 16 16 16 16 16 16
17 17 16 16 16 15 14 14 13 13 13 13 15 17 19 20 21 22 22 24 25 26 25 25 24 24 23 22 22 21 20 19 19 18 17 17 17 17 17 17 17 17 16
17 17 16 16 16 15 14 13 12 12 12 12 14 15 17 19 21 22 22 23 25 26 26 26 26 25 24 23 23 22 21 20 19 19 19 19 19 18 18 18 18 18 17
17 17 17 16 16 15 14 12 11 10 10 11 12 13 15 17 19 22 23 23 23 25 26 26 27 26 26 25 23 23 22 21 21 20 20 20 20 20 19 19 19 19 19
17 17 17 16 16 15 14 12 10 9 9 9 11 12 14 16 17 19 21 22 23 24 25 26 27 27 27 26 25 24 23 22 22 21 21 20 20 20 20 20 20 19 20
17 17 17 16 16 15 14 12 10 9 8 8 10 11 13 14 16 18 20 21 22 23 25 26 27 27 28 28 27 26 25 24 23 23 22 22 21 21 21 21 20 20 20
17 17 17 16 15 15 14 12 11 9 8 8 9 10 11 13 15 17 19 21 21 22 24 25 27 27 27 28 28 27 27 26 25 24 24 23 23 23 23 22 21 21 21
17 17 17 16 16 15 14 13 11 9 7 6 7 9 10 12 14 16 18 20 20 21 23 24 26 27 28 28 28 28 28 27 27 26 25 25 25 25 25 24 23 23 23
17 17 17 17 16 15 14 13 11 9 7 6 6 8 9 11 13 15 16 19 20 20 21 24 24 26 27 27 28 28 28 28 28 27 26 26 26 26 26 26 25 25 24
16 16 16 16 16 15 14 13 11 10 7 5 5 7 8 9 11 13 15 17 19 19 20 22 22 24 25 27 28 28 28 28 29 28 27 26 26 26 26 27 27 26 26
15 16 16 16 15 15 14 13 12 10 7 5 4 5 7 8 10 11 13 15 17 18 18 20 21 22 23 25 26 27 28 29 29 29 28 28 27 27 27 27 28 28 28
14 15 15 16 15 15 14 13 12 10 8 6 4 4 6 7 8 10 11 13 16 17 18 19 21 21 21 22 25 25 26 28 29 29 28 28 28 28 28 28 28 28 28
14 14 15 15 15 14 14 13 11 10 8 7 5 4 5 6 8 9 10 12 14 15 17 18 20 20 21 21 23 25 25 26 28 28 29 29 28 28 28 28 29 29 29
14 14 14 14 14 14 13 13 11 10 8 7 5 4 3 5 7 8 9 11 13 14 15 16 18 19 21 22 22 23 24 24 26 26 27 28 28 29 29 29 30 30 30
14 14 14 14 14 13 13 12 11 10 9 7 6 4 3 4 6 7 8 10 12 14 15 16 17 19 20 20 22 22 23 24 25 26 26 27 27 28 29 30 30 30 30
14 14 14 14 13 13 12 12 11 9 8 7 6 5 5 4 6 7 8 9 11 13 15 16 17 18 20 21 22 23 24 25 25 25 27 28 28 28 29 30 30 31 30
15 14 14 14 13 13 12 11 10 10 9 8 7 6 6 6 6 7 8 9 11 13 14 16 16 17 19 21 22 23 24 25 26 26 27 28 28 28 29 30 30 30 31
16 15 15 14 14 13 12 12 11 10 9 9 8 7 7 7 7 8 8 9 11 12 14 15 16 17 18 20 21 22 23 25 26 27 28 27 28 29 29 29 29 30 31
17 17 16 15 15 14 13 12 12 11 11 10 9 8 8 8 9 9 9 10 12 13 14 15 16 17 18 20 20 22 23 24 25 26 26 27 28 29 30 30 31 31 31
19 19 18 17 16 15 15 14 13 13 12 11 11 10 9 9 9 10 10 11 12 13 14 16 17 17 18 19 21 22 23 24 26 26 26 27 28 29 29 30 31 32 32
21 21 20 19 18 18 17 16 15 15 14 13 13 12 11 11 11 11 11 12 13 14 15 16 17 18 18 19 21 22 23 24 25 26 26 27 28 29 29 30 30 31 32
23 23 22 21 21 20 19 19 18 17 16 15 14 14 14 13 13 13 13 13 14 15 15 16 17 18 19 19 20 21 22 23 25 25 26 27 28 28 29 30 31 32 32
Wind_Direction
319 316 311 305 300 296 288 282 275 270 263 255 249 247 245 240 234 230 229 227 225 223 221 219 218 217 216 213 208 202 197 193 187 181 180 179 175 176 178 179 181 181 182
324 320 316 310 305 302 294 284 277 270 264 255 249 245 241 237 231 228 226 223 223 221 219 218 217 217 216 214 210 205 199 196 196 193 189 185 182 183 183 183 186 185 183
329 326 321 316 312 308 301 289 280 274 264 255 248 243 238 235 229 226 225 223 221 219 219 218 217 217 216 215 211 209 205 201 201 200 197 194 192 191 190 189 189 187 187
333 332 328 322 317 312 305 294 285 277 266 254 248 242 237 232 228 226 224 222 221 219 218 217 216 216 214 214 213 211 209 206 205 204 201 200 198 197 195 193 192 193 194
336 335 333 328 323 316 308 298 287 278 268 255 247 242 236 230 227 226 223 221 220 219 218 217 216 215 213 214 213 212 211 209 207 206 205 205 203 201 201 198 198 201 202
339 338 337 333 330 324 315 305 293 281 268 257 248 241 237 231 227 225 221 219 219 219 217 217 215 215 215 216 216 213 211 210 210 210 209 208 207 205 205 206 206 207 208
341 340 340 338 335 330 322 313 300 289 274 261 249 243 235 229 227 224 220 220 219 217 217 218 216 215 216 217 216 215 214 213 213 214 214 213 212 210 211 213 213 213 215
343 342 340 340 338 335 329 320 308 295 279 263 250 242 236 226 223 225 223 223 220 218 217 218 216 216 217 217 216 217 216 217 217 217 216 216 216 215 216 217 217 217 220
345 344 343 342 341 340 335 328 316 303 286 266 251 242 235 228 223 223 222 222 221 219 217 217 216 215 217 217 216 217 218 219 220 220 218 218 219 219 220 221 221 223 224
346 346 345 344 344 343 340 335 326 309 292 270 256 244 235 231 224 218 218 219 219 218 217 218 216 216 217 217 218 220 220 220 221 220 220 221 222 222 224 224 225 228 227
347 347 347 347 346 346 344 341 335 319 297 276 259 246 238 232 224 220 218 217 218 218 219 219 218 217 217 218 219 221 221 221 222 222 222 224 225 226 227 227 228 230 231
349 349 349 350 349 349 348 345 341 333 310 282 262 247 238 233 226 221 219 217 218 217 216 216 217 218 217 218 219 221 222 222 224 224 226 227 228 229 230 231 231 232 233
350 351 351 351 351 351 350 348 345 339 326 289 263 249 239 232 229 223 220 218 219 218 215 216 218 220 219 219 220 221 222 224 225 225 227 230 231 232 232 233 233 233 235
349 350 351 352 352 353 353 352 350 345 335 310 275 256 241 234 228 226 225 224 222 219 216 217 221 222 220 221 222 223 223 225 225 226 229 231 232 233 233 233 235 236 237
347 349 352 353 353 353 355 355 355 352 345 329 296 263 242 235 230 229 230 227 225 224 220 220 221 222 224 225 223 223 224 224 226 229 231 232 234 235 235 234 236 238 240
345 347 350 352 353 353 353 355 356 354 352 343 317 277 248 238 234 233 230 226 225 225 225 224 224 226 226 225 223 222 223 225 228 229 231 232 234 236 236 237 240 242 243
342 344 347 350 351 352 352 353 353 355 355 351 336 301 260 238 237 236 232 229 226 226 226 224 226 230 231 229 225 224 226 228 229 232 234 234 236 238 238 239 241 243 245
337 340 344 347 348 350 351 352 352 352 351 350 347 326 279 248 244 241 236 231 227 227 229 229 231 233 234 234 232 231 230 230 230 232 235 236 238 240 241 242 243 245 246
332 335 338 342 345 346 348 348 348 347 347 345 340 327 294 259 247 245 240 234 231 231 231 232 233 233 233 235 236 236 234 234 233 235 237 239 240 241 243 244 245 246 247
325 328 331 335 338 342 343 345 346 344 341 340 335 323 297 271 257 252 246 239 236 235 234 235 237 235 234 234 235 235 236 236 235 237 239 240 241 242 243 245 246 247 248
316 319 322 326 329 332 336 338 339 338 335 329 322 315 303 283 269 260 251 246 243 241 239 240 241 239 238 237 237 237 238 239 238 239 242 242 244 244 244 245 247 248 250
307 311 313 316 319 321 323 326 328 326 325 322 317 307 299 289 275 266 259 253 250 249 245 243 243 243 243 241 241 240 241 242 242 243 245 247 248 248 246 247 248 250 251
299 303 305 307 309 310 312 314 316 316 315 313 310 304 296 288 280 274 266 257 254 252 249 246 245 247 246 244 244 244 243 245 245 246 247 250 249 250 249 250 251 252 254
293 295 298 299 301 302 302 303 304 305 304 304 302 300 296 290 283 276 269 264 260 256 253 249 248 249 248 248 247 247 246 246 247 248 249 252 252 252 252 252 253 254 256
288 289 291 293 293 295 295 294 295 297 297 294 293 292 292 290 286 282 275 268 262 260 258 256 253 252 252 252 252 251 249 249 249 250 252 254 254 254 254 255 255 255 257
283 284 285 286 287 289 289 288 288 289 290 288 286 285 285 284 283 282 278 273 267 263 263 260 257 255 254 255 256 256 253 251 252 253 254 255 256 255 255 256 257 258 259
Height
5823 5820 5818 5816 5814 5812 5811 5810 5810 5809 5810 5811 5813 5815 5817 5820 5823 5827 5830 5833 5837 5840 5843 5846 5850 5852 5855 5858 5860 5863 5864 5866 5868 5869 5871 5873 5876 5878 5881 5883 5885 5888 5890
5820 5817 5815 5812 5810 5808 5807 5805 5805 5805 5805 5806 5808 5810 5812 5815 5818 5822 5825 5829 5832 5836 5840 5843 5846 5849 5852 5855 5858 5861 5863 5865 5867 5869 5871 5873 5876 5878 5880 5882 5885 5888 5890
5818 5815 5811 5809 5806 5804 5802 5801 5800 5800 5800 5801 5803 5805 5807 5810 5813 5817 5820 5824 5828 5832 5836 5839 5843 5846 5849 5852 5856 5859 5861 5864 5866 5868 5871 5873 5875 5877 5879 5882 5884 5887 5890
5815 5812 5809 5806 5803 5801 5799 5797 5796 5795 5795 5796 5798 5799 5802 5805 5808 5812 5816 5819 5824 5828 5832 5836 5839 5843 5846 5850 5853 5856 5859 5862 5864 5867 5869 5872 5874 5876 5879 5881 5884 5886 5889
5813 5810 5806 5803 5800 5798 5795 5793 5792 5791 5791 5792 5793 5795 5797 5800 5803 5807 5811 5815 5819 5823 5827 5832 5836 5839 5843 5846 5850 5853 5856 5859 5862 5865 5868 5870 5873 5875 5878 5880 5883 5885 5888
5811 5807 5804 5801 5798 5795 5792 5790 5788 5788 5787 5788 5789 5790 5793 5796 5799 5803 5807 5810 5815 5819 5823 5827 5832 5836 5840 5843 5847 5850 5853 5857 5860 5863 5866 5868 5871 5874 5876 5879 5882 5884 5887
5809 5806 5802 5799 5795 5792 5789 5787 5785 5784 5784 5784 5785 5786 5788 5791 5795 5799 5802 5806 5810 5814 5819 5823 5828 5832 5836 5839 5843 5847 5850 5854 5857 5860 5863 5866 5869 5872 5874 5877 5880 5882 5885
5807 5804 5800 5797 5793 5790 5787 5785 5783 5782 5781 5781 5782 5783 5785 5788 5791 5794 5798 5802 5806 5810 5814 5819 5823 5828 5832 5836 5840 5844 5847 5850 5854 5857 5860 5863 5866 5869 5872 5875 5877 5880 5882
5806 5802 5799 5795 5792 5788 5785 5783 5781 5779 5779 5779 5779 5781 5782 5784 5787 5791 5794 5798 5801 5805 5810 5815 5819 5824 5828 5832 5836 5840 5844 5847 5850 5854 5857 5860 5863 5866 5869 5872 5874 5877 5879
5805 5801 5797 5794 5790 5787 5784 5781 5779 5778 5777 5776 5777 5778 5780 5781 5784 5787 5791 5794 5797 5801 5805 5810 5814 5819 5823 5828 5832 5836 5840 5843 5847 5850 5853 5857 5860 5863 5866 5868 5871 5873 5876
5803 5800 5796 5792 5789 5786 5783 5780 5777 5776 5775 5774 5775 5775 5777 5779 5781 5784 5787 5791 5794 5797 5801 5806 5810 5814 5819 5823 5827 5832 5836 5839 5843 5846 5849 5852 5856 5859 5861 5864 5867 5870 5872
5802 5799 5795 5792 5788 5785 5782 5779 5776 5774 5773 5772 5772 5773 5774 5776 5778 5781 5784 5787 5790 5794 5797 5801 5806 5810 5814 5818 5823 5827 5831 5835 5838 5842 5845 5848 5851 5854 5857 5860 5862 5865 5868
5802 5798 5795 5791 5787 5784 5781 5778 5775 5773 5771 5771 5771 5771 5772 5774 5776 5779 5781 5784 5787 5790 5794 5798 5802 5806 5810 5814 5818 5822 5826 5830 5833 5837 5840 5843 5846 5849 5851 5854 5857 5860 5863
5801 5797 5794 5790 5787 5784 5780 5777 5775 5772 5771 5770 5769 5770 5771 5772 5774 5776 5778 5781 5784 5787 5791 5794 5798 5801 5805 5809 5813 5817 5821 5825 5828 5832 5835 5838 5841 5844 5846 5849 5852 5855 5857
5800 5797 5794 5790 5787 5783 5780 5777 5774 5772 5770 5769 5769 5769 5769 5771 5772 5774 5776 5778 5782 5784 5787 5791 5794 5797 5801 5804 5808 5812 5815 5819 5823 5826 5830 5833 5836 5838 5841 5844 5847 5849 5852
5799 5796 5793 5790 5786 5783 5780 5777 5774 5772 5770 5769 5768 5768 5768 5769 5770 5772 5774 5776 5778 5781 5784 5787 5790 5793 5797 5800 5803 5807 5810 5814 5817 5820 5824 5827 5830 5833 5835 5838 5841 5843 5846
5799 5796 5793 5789 5786 5783 5780 5777 5774 5772 5770 5769 5768 5767 5768 5768 5769 5770 5772 5774 5776 5778 5781 5784 5787 5790 5792 5796 5799 5802 5805 5809 5812 5815 5818 5821 5824 5827 5829 5832 5834 5837 5839
5797 5795 5792 5789 5786 5783 5780 5777 5774 5772 5771 5769 5768 5767 5767 5767 5768 5769 5770 5771 5773 5776 5778 5781 5783 5786 5789 5791 5794 5797 5800 5803 5806 5809 5812 5815 5818 5821 5823 5826 5828 5830 5832
5796 5794 5791 5788 5785 5782 5780 5777 5774 5772 5771 5769 5768 5767 5766 5766 5767 5767 5768 5769 5771 5773 5775 5777 5779 5782 5784 5787 5790 5793 5795 5798 5801 5804 5806 5809 5812 5814 5817 5819 5821 5823 5825
5794 5792 5790 5787 5784 5782 5779 5776 5774 5772 5770 5769 5767 5766 5766 5765 5765 5766 5766 5767 5769 5770 5772 5774 5775 5777 5780 5782 5785 5788 5790 5793 5796 5798 5801 5803 5805 5807 5810 5812 5814 5816 5818
5792 5790 5788 5785 5783 5780 5778 5775 5773 5771 5770 5768 5767 5766 5765 5764 5764 5764 5764 5765 5766 5767 5768 5770 5771 5773 5775 5777 5780 5782 5785 5787 5790 5792 5794 5797 5799 5801 5802 5804 5806 5808 5810
5789 5787 5785 5783 5781 5779 5776 5774 5772 5770 5768 5767 5766 5764 5763 5763 5762 5762 5762 5762 5763 5764 5765 5766 5767 5769 5770 5772 5774 5776 5779 5781 5784 5786 5788 5790 5792 5794 5795 5797 5798 5800 5802
5786 5784 5782 5780 5778 5776 5774 5772 5770 5768 5767 5765 5764 5763 5762 5761 5760 5760 5759 5760 5760 5760 5761 5762 5763 5765 5766 5768 5769 5771 5773 5775 5777 5779 5781 5782 5784 5786 5787 5789 5791 5792 5794
5781 5780 5778 5776 5775 5773 5771 5769 5767 5766 5764 5763 5761 5760 5759 5758 5757 5757 5757 5756 5756 5757 5757 5758 5759 5760 5761 5762 5764 5765 5767 5768 5770 5772 5774 5775 5776 5778 5779 5781 5782 5784 5785
5776 5774 5773 5772 5770 5769 5767 5765 5764 5762 5761 5759 5758 5757 5756 5755 5754 5753 5753 5753 5753 5753 5753 5754 5754 5755 5756 5757 5758 5759 5760 5762 5763 5765 5766 5768 5769 5770 5771 5772 5774 5775 5776
5769 5768 5767 5766 5765 5763 5762 5761 5759 5758 5757 5755 5754 5753 5752 5751 5751 5750 5749 5749 5748 5748 5749 5749 5749 5750 5750 5751 5752 5752 5753 5755 5756 5757 5758 5760 5761 5762 5763 5764 5765 5766 5767